Location: Peterborough
(44.3048°N, 78.3199°W)
Time: 04:44:09
(UTC-04:00)

ISS - Pass Details

Date: 15 May 2025
Orbit: 415 x 418 km, 51.6° (Epoch: 20 June)

Event Time Altitude Azimuth Distance (km) Brightness Sun altitude
Rises 22:19:16 0° 286° (WNW) 2,360 1.1 -15.6°
Reaches altitude 10° 22:21:40 10° 302° (WNW) 1,495 0.2 -15.9°
Maximum altitude 22:24:24 23° 356° (N) 948 -1.3 -16.2°
Drops below altitude 10° 22:27:08 10° 51° (NE) 1,493 -1.0 -16.5°
Enters shadow 22:28:47 - 63° (ENE) 2,072 -0.4 -16.7°
